Wetbulb
52.65 53.85 53.35 52.68 51.74 52.25 51.66 52.94 50.61 53.04 53.52 56.24 58.06 58.48 59.61 61.17 62.24 62.81 63.82 64.68 66.16 67.55 70.01 73.15 75.36 77.15 77.73 76.50 77.85 77.47 78.10 78.00 78.26 79.68 80.32 80.43 80.21 80.72 80.87 80.96 80.82 81.00 80.53 80.56
50.39 53.10 51.59 50.35 53.08 52.87 52.83 52.98 53.39 53.91 54.24 58.94 59.83 60.19 59.74 59.97 60.45 60.69 61.87 62.68 63.89 65.22 68.48 70.55 73.31 76.20 76.96 77.74 77.54 78.05 78.58 78.06 79.08 79.84 80.29 80.39 80.76 80.56 80.92 80.58 80.80 80.75 80.46 80.27
46.03 51.25 50.45 47.09 51.42 53.06 53.95 54.70 54.28 52.09 56.03 59.25 58.18 58.44 59.53 60.25 60.87 61.11 61.88 62.53 63.59 64.55 66.06 69.73 71.12 74.41 74.97 78.05 78.42 77.61 78.06 78.95 79.10 79.81 79.85 80.42 80.79 80.83 80.14 80.22 80.70 80.39 80.22 80.48
44.70 48.57 41.73 51.47 55.72 54.72 53.61 54.73 56.03 56.35 57.66 58.42 59.00 60.29 60.94 61.51 61.33 61.76 62.46 63.13 63.97 63.86 65.72 68.45 68.49 70.54 74.21 74.87 78.85 78.37 78.02 78.18 79.09 79.33 79.85 80.56 80.72 80.31 80.53 80.70 80.25 80.25 80.14 80.48
42.20 44.78 48.55 50.52 52.66 53.31 52.42 52.28 56.10 55.96 57.07 57.40 58.50 59.07 59.58 61.48 61.93 62.60 63.43 63.81 64.44 64.85 65.55 70.27 67.94 70.13 72.17 74.36 76.96 78.08 78.15 78.19 78.53 79.54 79.47 79.93 79.63 80.05 80.45 80.11 80.11 79.85 80.29 80.42
43.71 41.09 41.32 49.84 53.67 54.43 55.55 49.15 56.96 56.94 57.08 56.92 59.11 55.51 58.90 65.68 66.53 65.38 64.15 64.61 65.19 65.69 66.17 66.63 69.47 68.22 68.71 70.01 74.08 77.16 77.49 78.77 79.32 80.22 79.74 79.60 79.96 80.39 80.50 80.33 79.68 79.40 79.64 80.24
40.65 40.89 45.90 52.13 54.69 56.55 47.13 53.19 59.40 58.95 59.00 60.18 59.82 62.72 65.65 66.60 67.00 68.75 69.46 69.57 69.58 69.44 68.66 69.69 70.23 69.43 73.55 73.17 73.02 76.32 78.03 79.22 79.68 80.09 80.05 80.18 80.33 80.84 80.59 80.22 79.35 79.49 79.26 79.65
41.22 39.46 38.42 52.31 51.13 49.34 54.74 58.72 58.39 59.43 60.74 61.39 63.29 64.01 64.80 65.58 67.03 68.37 69.60 69.92 69.60 69.55 71.86 73.09 71.66 72.49 76.07 76.08 77.58 79.44 79.12 78.73 79.42 80.11 79.06 79.13 80.34 80.67 81.07 80.33 79.52 79.23 78.90 78.86
42.89 43.11 50.84 52.55 52.04 54.15 54.20 53.81 55.24 56.31 57.61 58.65 59.61 62.67 64.46 65.18 67.54 69.45 70.25 69.87 68.03 69.02 73.04 71.43 73.06 73.60 75.59 78.37 80.57 80.30 79.98 80.01 80.14 80.49 80.33 80.26 80.22 80.10 78.62 79.54 77.90 77.57 77.31 77.82
43.45 46.66 48.39 49.94 51.87 52.89 53.86 53.61 54.71 55.62 56.01 56.19 56.18 60.72 63.67 65.68 68.30 69.72 70.31 71.35 72.99 73.10 72.48 71.70 74.71 75.87 75.86 78.37 78.73 79.29 79.74 80.17 80.21 80.27 79.65 79.75 77.86 78.17 77.35 76.81 76.93 76.57 76.57 76.77
44.02 46.50 48.89 49.93 51.18 51.85 52.46 53.68 53.52 54.10 55.40 56.01 56.77 58.75 63.36 66.06 69.36 69.54 71.32 72.70 72.76 73.43 74.23 73.81 75.63 76.46 77.32 77.66 77.43 76.49 76.87 76.81 77.15 76.77 77.60 78.96 79.09 76.95 77.17 78.42 75.05 76.81 76.96 76.85
41.10 48.12 48.12 49.49 52.07 53.74 52.30 51.71 52.72 53.60 54.35 58.05 59.20 60.75 64.61 65.10 68.68 70.56 70.66 71.24 72.25 72.34 71.98 72.25 72.73 72.89 73.67 74.20 76.62 77.44 76.46 76.38 76.04 76.08 76.52 76.79 76.90 77.34 59.64 60.66 57.13 51.36 48.09 59.48
45.16 49.29 49.94 50.58 52.10 53.21 52.57 52.85 53.97 54.90 56.70 56.99 60.04 62.15 65.37 64.43 68.04 66.32 69.86 70.03 70.79 71.43 71.97 72.44 72.08 70.40 71.53 73.90 74.31 74.20 74.18 74.41 74.47 71.31 73.73 74.03 75.55 75.37 74.58 68.20 52.08 51.90 48.27 48.64
46.59 46.40 46.01 48.88 48.70 52.66 53.45 53.88 53.83 54.63 55.62 57.18 60.16 64.31 64.59 63.54 64.49 67.48 67.66 69.17 70.51 71.43 70.74 70.47 70.52 71.07 73.16 74.04 74.14 72.79 71.45 58.26 73.02 72.92 73.18 73.22 73.78 74.13 74.18 73.58 73.63 74.04 54.50 51.09
42.66 44.47 46.64 49.98 49.23 51.06 52.79 53.36 52.38 54.11 55.72 58.19 61.28 63.81 62.89 63.24 64.29 65.77 68.54 69.13 68.59 68.74 69.18 69.84 69.79 69.93 71.86 70.98 70.36 70.66 71.29 70.67 70.60 70.29 69.77 67.90 69.80 69.33 69.26 68.60 66.40 64.32 64.61 57.38
47.51 44.57 44.97 45.32 47.96 50.18 50.02 50.04 52.28 55.36 56.15 60.01 61.82 62.41 62.77 63.57 65.24 66.50 67.06 67.01 66.59 66.51 66.75 67.85 68.61 70.19 71.03 71.37 71.26 70.10 68.63 62.21 64.72 69.31 68.45 68.44 68.82 69.27 68.49 68.14 67.71 66.32 65.27 64.42
44.79 43.21 44.59 45.06 47.39 48.76 50.64 52.25 52.67 56.48 59.34 59.68 60.93 61.60 61.43 61.87 61.89 63.39 64.14 64.35 65.40 65.74 66.74 68.01 68.39 70.30 71.36 71.52 70.90 70.08 69.99 69.72 61.66 68.76 67.83 67.98 68.04 67.58 66.91 67.03 65.57 65.72 64.26 60.24
49.26 50.97 52.19 51.78 51.44 51.06 51.15 53.81 55.83 58.22 57.95 58.33 59.22 58.55 59.00 58.12 58.74 61.19 62.48 62.89 62.62 63.57 64.77 65.42 67.60 69.22 69.71 69.90 70.39 69.53 69.33 69.45 69.05 68.57 67.72 66.91 67.54 67.19 67.25 66.27 65.32 64.47 65.19 62.78
49.80 49.25 49.72 50.27 51.26 51.10 51.11 51.73 52.34 52.45 52.75 52.92 53.62 53.94 54.48 54.87 56.05 57.27 59.11 59.63 59.91 59.71 61.95 64.79 61.94 65.74 67.50 65.60 67.23 68.29 68.21 68.15 68.19 67.96 67.83 63.69 66.63 66.59 64.64 63.40 62.96 62.05 62.78 63.08
49.46 50.33 50.10 49.79 50.26 49.75 49.99 50.27 50.44 50.39 51.83 50.43 49.43 48.54 48.00 51.85 54.08 54.06 54.65 55.14 57.39 58.15 60.32 60.91 63.75 63.53 64.89 64.97 63.64 67.03 66.48 66.23 66.31 66.72 66.27 66.20 66.09 65.49 63.15 57.08 61.10 62.05 62.99 63.04
48.20 49.58 49.26 49.44 48.82 49.05 49.27 50.39 50.06 49.48 49.82 49.66 50.22 49.66 48.38 48.18 48.72 49.98 50.30 50.03 53.93 58.10 58.02 56.41 56.26 60.31 60.74 61.69 62.17 63.23 63.62 64.77 63.92 63.59 65.01 62.87 62.72 62.47 62.48 61.25 60.18 59.63 59.46 59.56
49.87 49.37 49.85 49.00 47.75 47.43 49.35 49.69 48.74 48.07 49.20 48.90 49.42 49.23 48.54 48.94 48.67 47.75 48.28 48.94 52.32 51.60 55.85 56.36 56.16 54.64 57.85 58.75 59.49 60.34 61.32 61.57 62.09 62.34 62.22 61.65 59.06 57.39 56.18 55.48 55.14 55.44 56.13 56.67
50.32 50.52 50.00 50.21 50.18 49.60 49.64 49.26 48.50 48.20 47.62 48.17 49.36 49.78 49.27 49.20 49.76 48.15 46.88 50.10 50.02 49.13 52.23 52.92 51.63 52.98 53.68 56.87 56.27 55.82 56.18 57.65 58.98 59.60 59.28 57.56 57.86 57.12 55.68 52.95 53.19 53.60 52.33 52.71
50.29 50.41 50.54 51.07 50.52 49.74 48.95 49.37 48.65 49.20 49.23 48.26 47.96 48.52 48.28 47.13 46.99 48.64 49.09 47.52 46.93 49.59 49.60 49.86 51.14 50.92 52.62 53.71 51.79 52.05 51.87 52.75 53.68 54.52 57.46 52.59 58.00 58.34 57.11 54.38 52.73 52.49 52.08 50.86
47.85 49.98 49.76 49.24 49.16 48.20 49.25 49.76 49.05 48.50 48.39 48.08 48.56 48.87 48.88 48.29 47.52 46.72 47.10 47.39 46.17 47.89 48.42 47.68 48.91 50.04 52.96 53.75 53.79 52.35 52.25 52.84 53.35 53.88 54.78 55.61 56.25 56.93 56.90 56.37 55.79 54.26 52.84 51.17
47.00 46.81 48.63 49.12 48.32 48.36 48.98 49.17 47.64 47.86 48.28 47.24 47.43 47.88 47.98 47.14 47.00 46.63 47.27 46.50 47.06 47.10 47.30 47.43 47.26 49.53 51.11 51.29 51.65 51.57 51.74 51.45 51.75 50.75 50.01 51.12 53.05 53.60 53.53 54.10 54.11 54.09 54.11 53.46
47.44 44.36 47.90 47.61 48.19 48.17 47.69 47.23 46.57 45.58 45.66 46.85 46.16 46.92 46.69 46.77 46.14 45.79 44.62 46.07 46.18 46.18 46.52 47.08 46.95 46.21 47.69 48.48 49.52 50.47 50.86 51.49 46.59 51.19 51.68 52.42 52.47 51.08 49.03 47.00 46.28 46.65 47.96 47.87
MSLP
989.94 988.21 988.04 987.63 988.08 987.96 987.83 988.22 987.79 987.59 988.11 988.38 989.46 990.15 990.36 990.89 991.35 991.71 992.28 992.53 992.84 993.18 993.35 993.71 994.41 995.34 996.33 997.27 998.03 999.03 1000.11 1000.95 1001.67 1002.61 1003.46 1004.25 1004.81 1005.36 1006.12 1006.67 1007.24 1007.81 1008.33 1008.70
991.34 989.77 990.08 989.31 987.78 987.75 987.83 988.23 988.40 988.29 987.73 988.36 989.22 990.19 990.86 991.47 991.97 992.50 992.81 992.84 992.97 993.17 993.47 993.69 993.97 994.77 995.59 996.54 997.34 998.29 998.92 999.49 1000.68 1001.72 1002.59 1003.27 1004.04 1004.58 1005.08 1005.55 1005.99 1006.53 1006.85 1007.32
992.95 991.90 991.28 990.22 988.76 988.09 987.79 988.08 988.42 988.27 988.80 988.68 989.30 990.40 991.24 991.94 992.36 992.68 992.86 992.86 992.76 992.79 992.70 993.27 993.75 994.38 995.03 995.80 996.90 997.40 998.13 998.91 999.69 1000.52 1001.35 1002.28 1003.14 1003.65 1003.87 1004.17 1004.95 1005.28 1005.81 1006.42
994.95 993.60 991.50 989.47 989.52 989.60 989.32 988.95 988.92 989.20 989.64 989.93 990.65 991.43 991.86 992.24 992.39 992.46 992.46 992.40 992.40 992.23 992.19 992.56 992.73 993.03 994.29 995.16 996.18 996.84 997.47 998.16 998.72 999.34 1000.19 1001.27 1002.03 1002.53 1003.19 1003.87 1004.13 1004.51 1004.98 1005.41
996.13 993.29 991.42 990.25 990.25 989.96 990.14 990.38 990.68 990.83 991.21 991.58 992.08 992.50 992.64 992.67 992.61 992.48 992.36 992.25 991.97 991.80 991.69 991.84 992.11 992.47 993.13 994.22 994.97 996.00 996.53 997.03 997.72 998.68 999.48 1000.12 1000.47 1001.15 1001.98 1002.71 1003.08 1003.22 1003.63 1004.15
997.46 994.80 992.05 991.31 990.86 991.30 991.41 991.27 991.21 991.60 991.88 992.16 992.16 992.24 992.33 992.59 992.46 992.06 992.01 991.77 991.63 991.56 991.57 991.71 992.09 992.38 992.77 993.39 994.04 994.72 995.19 996.02 997.17 997.85 998.60 999.06 999.66 1000.26 1001.01 1001.61 1001.87 1002.35 1002.57 1002.68
998.70 996.53 994.20 992.60 992.30 992.58 993.17 993.68 992.36 992.49 992.83 993.12 993.12 993.46 993.86 994.14 993.84 993.68 993.29 992.79 992.47 992.17 992.16 992.12 992.06 992.10 992.53 992.76 993.04 993.36 994.72 995.49 996.20 996.91 997.52 998.28 998.99 999.56 1000.09 1000.62 1001.06 1001.31 1001.40 1001.53
999.03 997.53 995.96 994.48 994.41 994.15 995.11 995.56 995.83 995.51 995.49 995.59 995.40 995.53 995.32 994.83 994.31 993.84 993.22 992.77 992.59 992.16 991.86 992.31 992.42 992.24 992.44 992.54 992.54 993.27 993.95 994.85 995.56 996.34 996.97 997.53 998.24 998.90 999.44 999.98 1000.34 1000.42 1000.69 1000.64
998.75 997.54 997.49 996.69 996.54 996.05 996.48 997.57 997.68 997.53 997.37 997.44 997.06 996.37 995.75 995.39 994.68 993.80 992.87 992.45 992.02 991.77 991.78 992.21 992.35 992.54 992.64 992.72 993.02 993.28 993.76 994.36 995.09 995.79 996.40 996.85 997.43 998.27 998.86 999.37 999.43 999.48 999.46 999.21
999.76 998.77 998.36 998.18 997.73 997.63 997.56 998.33 998.66 998.57 998.72 998.44 997.76 996.78 996.16 995.78 994.59 993.54 992.96 992.48 992.18 992.17 992.13 992.25 992.78 992.87 992.95 993.07 993.22 993.37 993.59 994.18 994.72 995.24 995.85 996.41 996.88 997.45 998.05 997.99 998.26 998.68 998.46 998.32
1000.15 999.96 999.53 999.17 999.11 998.97 998.80 998.74 998.85 998.87 998.92 998.24 997.59 996.99 996.36 995.97 994.77 994.11 993.53 993.42 993.25 992.80 992.76 993.20 993.43 993.42 993.32 993.40 993.42 993.49 993.80 994.11 994.43 994.77 995.32 995.78 996.44 996.64 997.07 997.38 997.57 998.05 998.40 998.36
1000.78 1000.50 999.99 999.73 999.65 999.41 999.31 999.38 998.94 998.78 998.39 998.28 997.64 997.13 997.17 997.11 996.09 995.12 994.44 994.33 994.23 994.10 994.15 994.27 994.39 994.55 994.63 994.63 994.21 993.66 993.90 993.97 993.95 993.83 994.20 995.15 995.45 996.69 997.33 997.28 997.58 998.25 999.07 999.52
1001.72 1001.35 1000.39 1000.38 1000.40 1000.01 999.80 999.65 999.30 998.78 998.17 998.12 997.59 996.85 997.56 997.71 997.04 996.54 995.59 995.11 994.80 994.73 994.81 994.91 995.06 995.40 995.53 995.24 994.99 994.81 994.42 994.53 994.10 994.16 993.74 993.86 994.50 995.33 996.05 997.18 997.59 998.03 998.89 999.15
1002.54 1002.35 1001.27 1000.76 1000.27 1000.10 999.90 999.40 999.65 999.64 999.07 998.20 997.16 996.54 997.60 997.85 997.63 996.82 996.26 995.84 995.58 995.41 995.53 995.70 995.60 995.45 995.37 995.41 995.47 995.58 995.66 995.73 994.70 994.62 994.47 994.60 995.15 995.65 996.18 996.75 997.12 998.10 999.28 999.56
999.43 1000.40 1000.91 1001.27 1001.32 1000.82 1000.49 1000.26 1000.02 999.01 998.34 997.39 996.90 997.68 998.27 998.22 997.82 997.14 996.56 996.37 996.35 996.35 996.23 996.00 995.99 995.94 995.78 995.94 995.88 995.74 995.20 995.43 995.49 995.97 996.48 996.52 996.67 997.04 997.53 998.05 998.57 999.02 999.34 999.23
997.19 999.34 1000.72 1001.11 1001.00 1000.96 1000.76 1000.85 1000.09 998.61 997.95 997.17 997.49 998.34 998.46 998.27 997.49 997.09 996.97 996.78 996.83 997.06 997.01 996.80 996.52 996.22 996.27 996.18 995.77 995.85 996.53 996.74 996.42 996.08 996.34 996.52 996.62 996.83 997.15 997.74 998.27 998.68 998.94 999.09
999.51 1000.03 1000.47 1000.76 1000.78 1000.82 1000.36 1000.07 999.75 998.88 997.69 998.17 997.97 998.30 998.81 998.58 997.47 997.92 998.12 998.22 997.84 997.61 997.41 997.04 996.93 996.74 996.60 996.22 995.79 995.57 995.57 996.04 996.59 996.41 996.73 996.82 996.95 996.89 996.97 997.13 997.87 998.07 998.73 999.61
1000.47 1000.08 1000.02 1000.10 1000.14 1000.17 1000.36 1000.16 999.23 999.08 998.93 999.13 998.74 998.96 998.18 997.91 998.85 999.04 999.16 999.16 998.66 998.43 998.04 998.16 997.70 997.21 996.94 996.67 995.89 995.85 995.77 995.88 996.06 996.24 996.81 997.15 996.78 997.25 997.16 997.59 998.31 998.65 998.58 999.71
1002.68 1002.20 1001.55 1001.01 1001.41 1000.98 1000.91 999.92 999.98 1000.50 1000.65 999.41 999.57 999.78 999.75 1000.20 1000.95 1001.13 1000.85 1000.12 999.54 999.52 999.46 998.73 998.14 997.58 997.37 996.93 996.33 996.46 996.74 997.13 997.48 997.86 997.86 997.96 997.94 998.43 999.17 999.65 999.54 999.87 999.76 999.68
1004.26 1003.41 1002.59 1002.43 1001.72 1002.11 1002.29 1002.32 1002.17 1002.14 1001.35 1001.26 1002.98 1002.27 1002.89 1002.10 1002.40 1003.04 1002.49 1001.82 1001.83 1001.67 1001.17 1000.14 999.02 998.78 998.48 998.03 997.39 997.54 997.93 998.07 998.21 998.49 998.59 998.41 998.46 998.78 1000.10 1000.66 1000.43 1000.43 1000.40 1000.53
1005.37 1005.27 1004.93 1004.46 1004.77 1005.03 1004.44 1003.60 1002.78 1003.52 1004.20 1003.47 1004.17 1004.96 1004.53 1004.56 1004.26 1004.62 1004.09 1003.73 1003.59 1002.52 1002.05 1001.59 1001.10 1000.01 999.91 999.39 999.19 999.30 999.19 998.39 1000.16 1000.12 999.80 1000.34 1000.60 1000.78 1001.16 1000.96 1001.47 1001.47 1001.33 1001.32
1006.18 1005.96 1005.90 1006.14 1006.36 1006.34 1005.94 1005.75 1005.88 1005.92 1005.72 1005.96 1005.98 1005.70 1005.88 1005.53 1005.85 1006.03 1005.67 1005.33 1004.64 1003.19 1002.97 1002.98 1002.44 1002.13 1001.78 1001.12 1000.89 1000.19 1000.33 1000.79 1001.15 1000.80 1000.59 1001.07 1001.62 1002.22 1002.78 1002.77 1003.05 1003.11 1002.76 1002.47
1007.70 1007.10 1006.86 1006.60 1006.53 1006.85 1006.66 1006.50 1006.88 1007.01 1006.82 1006.65 1006.37 1006.49 1006.64 1006.46 1005.50 1005.45 1006.01 1006.28 1005.61 1005.48 1004.76 1004.32 1004.56 1004.16 1003.75 1003.28 1003.60 1003.21 1002.76 1002.24 1001.96 1001.60 1002.07 1002.03 1002.25 1002.70 1003.83 1004.14 1004.28 1004.38 1004.39 1004.08
1008.42 1008.50 1008.08 1007.48 1007.45 1007.22 1007.13 1007.42 1007.54 1007.73 1007.86 1008.03 1007.79 1007.53 1007.05 1006.55 1006.79 1006.92 1006.64 1006.78 1006.65 1006.43 1005.95 1005.67 1005.45 1004.73 1004.11 1004.73 1005.44 1005.29 1005.01 1005.01 1004.61 1003.50 1002.35 1002.51 1002.54 1002.68 1003.82 1004.64 1004.90 1005.11 1005.37 1005.37
1009.44 1008.59 1008.78 1008.38 1007.75 1007.62 1007.71 1007.65 1007.65 1007.87 1007.88 1007.72 1007.49 1007.53 1007.61 1007.51 1007.36 1007.78 1007.66 1007.20 1006.91 1006.31 1006.68 1007.53 1006.98 1005.97 1005.26 1005.17 1005.08 1005.96 1006.61 1006.33 1005.78 1005.18 1005.05 1004.59 1003.91 1003.65 1004.16 1004.23 1004.59 1005.08 1005.61 1006.01
1009.69 1009.15 1008.80 1008.94 1008.90 1008.59 1008.34 1008.30 1008.53 1008.72 1008.48 1008.38 1008.31 1008.34 1008.23 1008.28 1008.30 1008.06 1007.50 1007.86 1007.11 1007.45 1007.82 1007.74 1007.83 1007.06 1006.91 1006.94 1006.75 1006.49 1006.49 1006.34 1006.27 1006.37 1006.36 1006.33 1006.15 1006.23 1006.24 1005.99 1005.74 1005.62 1005.79 1005.70
1009.84 1010.09 1009.23 1009.09 1009.07 1009.28 1009.47 1009.38 1009.29 1009.64 1009.76 1009.10 1009.03 1009.30 1009.35 1009.41 1009.35 1009.04 1008.90 1008.43 1007.96 1008.32 1008.52 1008.32 1008.35 1008.68 1008.14 1007.95 1007.78 1007.66 1007.68 1006.87 1007.14 1006.63 1006.52 1006.59 1006.88 1007.27 1007.71 1008.01 1008.09 1008.24 1007.87 1007.96
Wind_Speed
26 17 7 27 31 31 31 24 24 15 19 16 14 11 12 13 9 8 8 6 7 11 12 10 13 15 18 19 18 21 21 23 22 21 19 19 20 19 19 19 19 19 19 19
24 23 5 14 19 32 30 28 24 23 15 17 16 11 7 5 5 5 7 8 7 8 12 14 15 14 15 17 18 17 18 21 20 20 19 19 18 19 19 20 20 20 21 20
14 20 10 18 20 19 23 27 23 22 19 14 4 3 4 5 7 9 10 11 10 11 10 14 16 14 15 15 17 18 18 17 19 19 20 19 18 18 20 21 18 20 20 19
11 17 24 12 16 16 15 15 13 11 9 7 7 8 11 12 12 12 12 11 11 11 11 12 13 15 16 16 15 17 17 18 19 20 19 18 19 20 18 17 19 18 19 19
11 14 5 16 15 20 23 20 17 16 15 12 12 14 16 16 17 17 16 15 13 13 14 10 9 9 10 15 15 16 18 19 20 18 18 19 21 21 18 17 17 19 18 20
9 14 18 7 14 4 3 11 15 23 18 13 10 10 9 10 14 13 15 13 12 13 12 12 12 14 13 14 15 17 20 18 17 17 18 20 19 18 16 18 18 15 18 20
14 10 11 6 5 6 14 6 1 4 3 5 7 8 15 16 16 16 15 15 15 10 10 11 11 11 12 13 15 17 15 16 17 18 18 18 17 16 16 17 16 17 18 18
15 18 22 12 7 6 9 9 14 15 13 12 10 12 15 17 18 17 17 16 15 13 10 9 11 10 11 12 12 11 12 14 15 15 15 15 16 14 15 15 16 16 17 16
15 11 8 9 11 15 5 6 9 11 12 13 16 14 15 16 17 16 15 13 11 13 10 7 7 8 9 9 8 8 11 12 13 14 14 13 14 14 13 15 15 16 15 15
18 18 17 17 17 14 13 11 15 14 14 16 17 18 17 17 16 13 11 10 7 8 8 4 4 7 9 8 8 9 10 10 10 11 12 13 12 13 14 14 14 14 13 14
20 23 21 19 20 19 21 22 20 19 19 20 19 18 17 17 16 9 8 7 6 4 1 4 4 6 5 1 5 8 9 9 10 10 11 10 11 11 12 13 13 13 13 13
17 18 18 20 18 20 21 23 24 22 20 19 19 18 12 15 14 12 6 4 2 2 4 5 5 5 5 4 6 7 8 8 8 8 9 9 9 10 6 5 2 1 3 2
22 25 26 21 21 21 20 20 19 20 21 20 20 16 8 10 10 8 6 5 3 4 5 5 7 5 3 1 3 2 4 4 3 3 4 4 8 9 9 8 5 5 11 11
30 26 26 22 18 18 22 17 15 22 23 24 22 13 8 5 5 7 5 3 5 6 8 7 6 8 6 6 7 6 5 2 0 3 3 4 6 6 7 7 8 3 11 11
30 29 26 21 17 19 17 17 21 22 21 20 16 9 4 8 8 8 6 6 10 10 9 9 11 8 8 9 9 7 4 5 4 5 6 4 5 5 5 5 4 4 5 4
1 18 20 20 21 20 18 19 22 23 21 14 10 9 10 10 9 7 8 9 10 9 10 9 9 8 7 5 1 10 9 1 3 5 4 4 3 3 3 2 1 3 4 5
11 10 12 14 17 19 21 19 16 22 14 12 16 10 10 11 12 11 13 12 13 13 12 11 11 8 7 5 7 5 4 7 2 6 6 5 4 4 4 4 5 4 5 6
20 11 8 6 10 13 11 8 3 9 9 2 8 9 10 16 11 9 12 11 14 14 14 12 11 10 9 8 6 6 6 4 4 5 6 6 6 6 7 8 8 6 6 2
22 21 17 20 16 17 12 18 21 20 16 19 17 17 20 17 15 13 14 13 16 16 14 13 12 13 13 16 8 8 8 8 7 6 5 4 7 9 8 6 5 5 5 5
21 23 25 26 28 25 19 19 22 19 19 24 18 21 16 15 13 13 13 18 17 13 15 18 15 15 14 16 16 9 10 10 10 9 8 9 8 9 8 7 6 7 7 7
23 21 21 23 21 16 16 17 22 21 18 22 17 13 17 18 20 16 14 13 17 13 16 18 16 12 13 13 12 12 11 12 10 10 10 12 11 12 11 10 8 7 7 8
19 19 18 17 15 14 14 15 16 14 13 14 13 13 13 12 14 14 13 13 10 18 16 15 14 23 14 17 13 13 12 11 10 9 10 10 9 10 10 10 10 9 9 9
16 16 16 17 17 15 15 16 17 16 17 17 14 13 12 10 11 14 12 13 12 16 13 15 15 18 22 16 14 14 16 15 11 10 7 8 9 10 11 10 9 10 9 9
15 15 16 12 13 14 14 13 14 14 13 15 15 15 13 11 12 10 11 15 17 13 16 17 18 17 12 13 10 11 11 11 12 13 13 12 11 11 11 10 9 9 10 11
15 12 14 14 13 10 11 13 12 13 12 12 14 13 14 12 12 11 11 10 15 15 13 15 17 13 13 11 11 12 9 10 11 10 12 13 13 11 10 10 10 10 10 9
12 11 9 11 10 10 10 10 10 10 9 10 11 11 11 10 10 10 10 10 12 11 10 10 12 12 11 11 11 11 10 10 6 8 9 9 12 12 13 13 13 12 12 10
8 11 9 9 9 9 9 9 9 10 12 10 10 10 10 10 10 10 10 10 10 10 9 9 10 9 9 9 9 9 8 9 10 11 10 10 9 9 10 10 9 10 12 12
Wind_Direction
254 255 236 201 212 216 215 219 223 207 208 163 139 136 133 141 129 126 144 170 197 233 234 222 195 194 195 207 207 206 203 205 209 209 212 210 207 205 204 206 208 209 209 210
253 250 215 261 242 213 214 220 223 235 232 197 158 178 188 207 198 235 279 281 265 224 224 225 207 200 199 202 211 205 209 209 203 206 205 210 210 207 206 207 206 208 210 210
234 240 226 238 236 240 226 210 224 221 232 253 222 221 247 249 237 238 259 265 240 249 224 210 209 211 207 202 203 213 209 207 207 203 204 205 208 208 210 209 207 211 212 211
249 226 228 230 202 237 242 254 249 259 270 272 276 271 264 262 273 275 269 269 258 253 217 219 218 196 200 197 198 210 213 211 208 208 204 199 204 211 212 210 212 212 214 216
248 235 194 213 234 207 214 228 230 233 234 241 251 251 251 264 270 272 271 274 265 249 238 249 260 213 211 192 195 202 214 211 213 206 206 201 206 208 209 209 212 214 214 215
260 248 228 217 89 66 45 231 225 221 230 234 240 234 237 339 338 301 263 267 276 253 260 255 227 237 229 220 207 203 211 211 205 207 206 209 209 206 206 211 215 213 219 219
238 256 246 287 47 247 193 72 14 269 160 253 268 338 336 327 322 319 307 302 307 306 297 274 277 245 228 228 219 215 204 209 202 206 205 210 209 206 207 210 216 214 221 220
229 238 238 284 345 242 45 32 8 0 5 355 339 326 310 317 314 311 299 291 280 285 270 264 259 233 235 215 223 195 201 201 203 204 205 205 211 210 209 210 213 224 218 229
228 230 245 294 315 290 51 342 320 328 332 327 314 307 316 315 309 298 294 286 273 272 295 269 251 252 236 248 215 214 194 193 201 198 203 220 197 206 209 212 223 217 227 224
271 268 272 285 291 285 297 304 300 302 306 300 297 307 316 314 304 310 306 293 302 283 271 255 271 248 239 229 210 210 190 201 197 202 201 205 222 203 219 220 218 231 230 234
268 259 266 270 273 275 281 282 285 293 291 297 293 297 315 314 314 313 320 333 316 313 67 91 36 28 26 35 193 196 195 200 201 208 198 205 220 229 214 228 236 232 228 249
258 250 249 254 263 261 254 264 275 279 284 295 292 290 312 302 309 316 304 297 278 97 108 104 108 92 52 23 325 209 191 194 197 209 191 199 220 216 200 209 218 237 56 55
279 282 278 266 264 267 257 258 263 282 289 286 286 283 308 289 283 294 318 268 208 138 125 104 78 73 80 39 79 37 9 30 84 267 270 244 204 218 242 213 206 97 38 43
259 263 266 264 266 259 269 267 278 266 267 270 278 295 296 277 267 245 243 199 162 123 88 91 100 92 92 80 86 93 92 314 105 27 8 351 346 334 325 299 306 20 52 34
229 228 244 250 255 272 263 275 262 261 257 254 254 270 242 236 223 211 186 77 67 61 61 81 85 62 71 82 73 49 48 58 74 83 47 63 69 48 21 6 1 335 326 336
337 194 212 228 236 246 245 258 258 270 247 253 259 217 211 223 197 131 119 115 101 91 84 72 53 68 83 58 42 128 107 47 294 84 90 51 65 101 130 96 329 342 328 335
107 157 186 207 224 235 236 246 256 262 255 261 248 212 223 194 115 111 101 91 89 82 67 56 66 62 56 33 52 55 58 103 357 82 48 39 20 34 31 18 11 13 43 32
42 51 176 221 214 225 241 272 40 248 259 73 110 98 116 85 87 75 77 91 79 67 62 57 35 58 58 18 44 62 70 70 65 55 65 46 42 35 20 31 22 358 333 72
32 45 50 72 74 73 55 69 64 58 51 67 41 64 69 62 63 53 47 50 59 52 35 47 30 45 39 18 18 61 75 76 60 46 52 53 51 47 40 28 29 35 356 344
30 35 40 48 45 36 42 52 68 54 52 63 58 53 50 50 57 57 56 57 52 46 37 19 53 45 27 31 20 64 67 35 44 60 46 57 46 85 79 52 50 43 28 27
34 43 33 47 50 41 38 38 53 47 45 51 54 69 62 61 55 37 36 44 17 33 44 40 30 34 35 24 48 49 34 64 63 42 41 54 41 37 33 47 38 30 26 8
29 34 42 55 52 47 52 66 66 63 65 74 64 64 58 64 78 72 60 48 20 16 42 46 40 33 27 37 32 41 57 57 46 52 56 70 70 57 41 37 31 21 22 25
26 24 40 34 52 56 53 56 62 58 55 49 61 72 64 61 63 61 55 31 48 28 35 34 22 59 42 48 44 41 31 28 34 65 86 93 81 74 61 49 42 37 26 24
18 34 22 35 54 48 60 67 63 56 65 68 59 52 43 54 51 42 64 35 24 55 43 15 7 6 58 70 49 48 42 37 22 10 36 49 56 62 72 69 65 60 48 34
5 17 37 20 24 54 53 48 62 60 55 49 53 53 50 46 45 49 31 42 33 27 45 20 3 29 33 36 63 66 52 49 44 46 37 23 27 49 55 66 78 90 79 67
22 357 30 43 38 27 33 43 51 38 44 52 47 41 40 45 27 34 32 27 38 27 31 41 31 16 31 31 36 32 45 36 77 91 70 44 43 32 27 25 33 38 34 57
39 21 16 29 32 48 36 42 51 49 27 17 40 34 30 27 34 28 31 29 35 31 27 24 42 28 11 19 32 37 31 44 47 17 38 45 62 77 71 61 52 36 41 35